Temperature
18 18 18 18 18 18 18 18 18 18 18 18 18 18 18 18 18 18 18 18 18 17 17 17 17 17 17 16 16 16 16 16 16 16 16 16 16 16 16 16 15 15 15
18 18 18 18 18 18 18 18 18 18 18 18 18 18 18 18 18 17 17 18 18 17 17 17 17 17 16 16 16 16 16 16 16 16 16 16 16 16 16 15 15 15 15
18 18 18 18 18 18 18 18 18 18 18 18 18 18 18 17 17 17 17 17 17 17 17 17 17 16 16 16 16 16 16 16 16 16 16 16 16 16 15 15 15 15 15
18 18 18 18 18 18 18 18 18 18 18 18 18 18 18 17 17 17 17 17 17 17 17 17 17 16 16 16 16 16 16 16 16 15 16 15 15 15 15 15 15 15 15
18 18 18 18 18 18 18 18 18 18 18 18 18 18 18 18 17 17 17 17 17 17 17 17 17 16 16 16 16 16 16 16 15 15 15 15 15 15 15 15 15 15 15
18 18 18 18 18 18 18 18 18 18 18 18 18 18 18 17 17 17 17 17 17 16 16 16 16 16 16 16 16 16 16 15 15 15 15 15 15 15 15 15 15 15 15
18 18 18 18 18 18 18 18 18 18 18 17 18 17 18 17 17 17 17 17 17 16 16 16 16 16 16 16 16 16 16 15 15 15 15 15 15 15 15 15 15 15 15
18 18 18 18 18 18 18 17 17 18 18 17 17 18 18 18 17 17 17 17 16 16 16 16 16 16 16 15 16 16 16 15 15 15 15 15 15 15 15 14 14 14 14
18 18 18 18 18 18 18 18 17 17 18 17 17 18 18 18 18 17 16 16 16 16 16 16 16 15 15 15 15 16 16 16 15 15 15 15 15 15 15 14 14 14 14
18 18 18 18 18 18 18 18 17 17 17 17 17 17 17 17 17 17 17 16 16 16 16 15 15 15 15 15 15 15 15 15 15 15 15 15 15 15 14 14 14 14 14
18 18 18 18 18 18 18 18 17 17 17 17 17 17 17 17 17 17 17 16 16 16 15 15 15 15 15 15 15 15 15 15 15 15 15 15 15 14 14 14 14 14 13
18 18 18 18 18 18 17 17 17 17 17 17 17 17 17 17 17 17 17 16 16 15 15 15 15 15 15 14 14 15 15 15 15 15 15 14 14 14 14 14 13 13 13
18 18 18 18 18 18 18 17 17 17 17 16 17 17 17 17 17 17 17 16 16 15 15 15 15 15 14 14 14 14 14 14 14 14 14 14 14 14 13 13 13 13 13
19 19 18 18 18 18 17 17 17 17 17 16 16 16 16 17 16 16 16 16 16 16 15 15 15 14 14 14 14 14 14 14 14 14 14 14 14 14 13 13 13 13 13
18 18 18 18 18 18 18 17 17 17 17 16 16 16 16 16 16 16 16 16 16 16 15 15 14 14 14 14 14 13 13 13 13 13 13 13 13 13 13 13 13 12 12
19 19 18 18 18 18 18 17 17 17 17 16 16 16 16 16 16 16 16 16 16 16 15 15 14 14 14 13 13 13 13 13 13 13 13 13 13 13 13 13 12 12 12
19 19 18 18 18 17 17 17 17 17 16 16 16 16 16 16 16 16 16 16 15 15 15 14 14 14 13 13 13 13 12 12 12 12 12 12 12 12 12 12 12 12 12
19 19 18 18 18 17 17 17 17 16 16 16 16 16 15 15 15 15 15 15 15 15 15 14 14 13 13 13 13 13 12 12 12 12 12 12 12 12 12 12 12 12 12
19 19 18 18 18 17 17 17 17 16 16 16 16 15 15 15 15 15 15 15 15 15 14 14 14 13 13 13 12 12 12 12 12 12 12 12 12 12 12 12 12 11 11
19 19 18 18 18 17 17 17 17 16 16 16 16 15 15 15 15 15 15 15 15 14 14 14 14 13 13 13 12 12 12 12 12 11 11 11 11 11 11 11 11 11 11
19 19 18 18 18 17 17 17 17 16 16 16 15 15 15 15 15 15 15 15 14 14 14 14 14 13 13 12 12 12 12 11 11 11 11 11 11 11 11 11 11 11 11
19 19 18 18 17 17 17 17 17 16 16 16 15 15 15 15 15 15 15 15 15 14 14 14 14 13 13 13 12 12 12 12 11 11 11 11 11 11 11 11 11 11 11
19 18 18 18 17 17 17 17 17 16 15 15 15 15 15 15 15 14 15 15 14 14 14 14 14 13 13 13 12 12 12 12 12 12 11 11 11 11 11 11 11 11 11
18 18 18 18 18 17 17 17 16 16 15 15 15 15 15 15 15 14 14 14 14 14 14 14 13 13 13 13 13 12 12 12 11 11 11 11 11 11 11 11 11 11 10
18 18 18 17 17 17 17 17 16 16 15 15 15 15 15 15 15 14 14 14 14 14 14 14 14 13 13 13 12 12 12 11 11 11 11 11 11 11 10 10 10 11 10
18 18 17 17 17 17 17 16 16 16 15 15 15 15 15 15 15 14 14 14 14 14 13 13 13 13 13 13 12 12 12 12 12 11 11 11 11 11 11 10 10 10 10
Wind_Speed
4 3 3 2 3 3 4 3 2 3 2 2 2 1 1 1 1 1 5 9 8 8 8 8 9 9 9 9 9 9 9 9 10 10 9 9 9 9 9 9 9 8 8
3 2 3 2 2 2 2 2 2 2 2 1 1 1 1 1 1 1 3 7 8 7 7 7 8 8 9 9 10 10 10 10 9 9 9 10 10 9 9 9 9 8 8
2 1 1 2 1 2 2 2 2 2 2 2 2 2 2 2 1 2 2 2 6 8 7 6 7 8 9 9 10 11 11 11 10 10 10 10 10 10 9 9 9 9 8
1 1 1 1 1 1 2 2 2 2 2 2 2 1 1 2 3 3 3 3 3 3 5 6 6 7 7 8 9 9 10 10 10 10 9 9 9 9 9 9 8 8 8
1 2 1 0 1 1 1 2 1 1 2 1 2 2 1 1 2 3 2 3 3 3 3 5 6 6 6 6 7 9 9 10 11 11 11 10 10 9 9 9 8 8 8
1 1 1 1 1 1 1 1 1 1 1 1 1 0 1 0 1 1 2 2 1 2 2 3 4 6 6 5 5 7 8 9 11 12 12 11 11 10 10 9 9 8 7
1 2 1 1 2 1 1 2 1 2 2 1 2 1 1 1 1 1 1 0 1 1 1 1 2 2 4 7 5 5 5 6 8 9 10 10 10 10 10 9 9 8 7
2 2 1 2 1 1 1 1 1 2 2 2 2 2 2 3 2 1 2 1 1 1 1 0 0 2 2 2 3 4 3 3 4 6 8 9 9 9 10 9 9 8 8
1 0 1 1 1 2 1 2 2 3 3 3 3 3 3 1 1 2 2 1 1 0 0 1 1 1 1 1 1 4 4 3 4 5 6 8 8 9 9 10 9 9 8
2 2 1 1 2 2 1 3 2 3 4 3 3 4 4 3 2 1 2 2 2 1 0 1 0 0 1 0 1 3 3 2 2 3 4 6 7 7 8 10 10 9 8
3 2 2 2 2 2 2 2 2 3 4 4 4 3 3 3 4 3 2 2 1 1 1 1 0 1 1 1 1 3 4 3 2 2 2 3 4 5 6 8 8 9 8
3 3 3 3 3 2 2 2 2 3 3 4 4 4 3 3 3 3 3 2 1 1 1 0 0 0 1 2 4 6 5 4 4 3 4 4 4 4 5 6 7 7 7
3 3 3 3 2 1 2 2 2 2 3 3 4 4 4 4 3 3 3 2 1 1 1 1 1 1 1 2 4 6 6 5 6 5 5 6 6 6 7 7 8 8 8
3 3 4 3 2 2 2 2 2 2 2 3 4 4 4 3 3 3 3 2 2 1 1 1 1 1 2 3 5 4 6 7 7 7 7 7 7 7 8 9 8 8 8
3 4 4 4 4 3 2 3 2 2 2 3 3 3 4 3 3 3 3 3 3 2 1 2 1 2 3 4 4 4 6 8 8 7 8 9 9 9 9 10 10 10 9
4 5 5 5 4 4 3 3 2 2 2 2 2 2 3 3 3 3 3 3 3 2 1 1 1 2 3 4 5 5 7 9 8 8 9 10 10 10 10 10 11 10 10
5 6 5 5 5 5 4 3 3 2 3 2 2 2 3 3 3 2 2 2 2 2 2 2 2 3 4 4 5 5 5 5 7 9 9 9 9 9 10 10 10 10 10
6 6 6 6 5 5 4 4 3 3 3 3 3 3 3 2 2 2 2 2 2 2 2 3 3 3 3 4 4 3 4 5 6 9 9 9 9 9 10 10 10 10 9
6 6 6 6 6 5 5 5 4 4 3 3 3 3 3 2 2 2 2 2 2 2 3 4 4 3 3 4 5 4 4 3 5 8 8 9 8 8 9 9 9 9 9
6 6 6 6 6 6 5 5 5 5 4 3 3 3 3 3 3 3 3 3 3 3 3 4 4 4 4 5 4 4 4 3 3 5 5 6 8 9 8 8 8 9 9
6 6 6 6 6 6 5 5 5 5 5 4 4 4 3 2 1 2 2 3 4 4 4 4 5 4 5 5 5 5 4 4 4 3 4 5 6 6 7 9 9 9 9
5 5 6 6 6 5 4 3 5 5 5 5 4 4 4 5 5 4 1 1 1 4 4 4 5 5 6 6 5 5 5 5 4 4 4 4 4 4 5 6 10 11 10
5 5 6 6 6 4 6 6 5 5 5 4 4 4 4 3 5 5 6 7 4 3 4 5 5 5 6 7 7 8 6 5 3 4 5 4 5 4 4 6 13 13 12
6 6 6 6 6 5 7 7 6 7 6 5 5 5 5 4 4 4 5 6 5 5 6 6 5 5 4 5 7 7 6 6 4 4 5 4 4 4 4 6 13 13 13
6 6 6 6 6 5 7 8 7 6 6 6 6 5 5 5 3 3 5 6 5 5 4 4 3 2 3 5 6 6 7 7 6 6 6 5 4 4 5 5 9 14 13
6 6 5 6 6 5 7 8 9 6 6 6 5 5 4 4 4 4 6 6 6 5 4 5 5 6 7 9 10 9 8 7 6 5 6 6 5 5 5 5 6 10 11
Wind_Direction
110 113 109 113 124 125 143 146 131 126 152 167 179 166 185 140 163 140 137 153 171 187 197 203 209 210 212 212 211 209 210 212 214 215 214 213 212 212 211 212 211 212 217
106 118 131 123 131 137 111 138 145 158 170 162 174 170 217 208 147 174 160 155 168 186 205 213 213 218 220 219 217 214 212 211 214 215 218 219 215 213 215 218 217 217 222
125 161 129 156 127 129 141 164 167 175 176 177 172 185 202 214 183 189 196 172 174 182 194 209 217 223 226 226 226 226 220 215 218 219 218 215 217 217 216 216 216 214 214
184 220 183 156 140 172 176 178 198 185 176 188 177 210 206 188 192 199 200 190 200 191 183 201 219 224 231 232 230 228 220 215 216 215 212 210 210 210 210 213 213 212 214
204 227 225 87 213 213 220 236 160 213 197 196 195 196 216 205 204 206 203 207 197 199 193 177 201 206 217 229 233 227 219 219 219 217 214 214 213 213 211 208 207 209 215
193 245 203 163 228 217 232 236 242 220 226 221 247 119 283 224 201 182 217 198 186 204 211 200 196 189 199 217 228 227 224 222 221 221 220 217 216 213 211 210 207 207 209
188 229 269 171 240 234 262 258 236 188 203 185 209 213 190 171 141 155 180 190 171 188 182 210 234 223 188 194 212 225 230 223 215 211 211 212 209 206 208 211 209 207 205
218 208 210 233 222 236 224 243 225 258 231 213 239 239 223 186 173 169 151 174 179 148 127 157 294 259 252 183 153 184 204 201 200 200 206 211 207 202 201 200 203 203 196
194 235 200 270 277 263 228 232 232 240 253 240 245 263 267 260 187 162 158 158 182 218 267 53 41 342 274 218 162 150 164 186 211 207 207 205 203 201 204 198 201 203 195
200 198 213 234 267 276 251 245 219 247 252 254 240 248 267 290 258 200 184 166 166 187 268 303 18 53 291 174 112 93 121 154 189 208 203 197 198 203 204 200 203 197 191
200 203 206 217 233 259 267 273 260 257 253 258 261 252 246 243 247 244 228 205 193 185 188 241 325 24 32 58 90 96 109 117 143 162 157 163 176 186 194 197 195 190 191
192 194 203 211 229 252 247 255 257 246 266 271 271 264 255 249 243 243 242 220 203 174 155 112 281 65 49 68 79 86 94 100 95 97 106 126 143 161 168 173 174 175 167
196 191 204 209 221 223 237 250 244 272 269 271 269 271 268 264 263 258 252 237 227 209 170 171 91 67 69 71 92 95 92 99 100 96 102 113 118 124 129 130 131 133 139
211 188 196 198 205 216 224 224 251 252 262 267 273 280 274 273 268 253 248 234 229 230 190 147 110 97 95 95 92 108 99 99 100 100 106 115 123 125 128 126 126 127 131
208 195 198 198 200 208 222 228 246 253 254 257 258 255 265 267 259 252 246 242 244 249 230 158 155 121 121 106 102 105 102 98 100 99 104 109 113 116 122 125 122 119 118
213 203 204 206 207 209 214 229 229 227 241 248 268 285 277 266 257 249 241 242 249 255 241 149 143 131 114 115 102 98 101 108 98 101 106 107 110 112 114 119 120 121 121
208 209 209 210 211 211 211 219 232 221 239 247 253 256 268 289 280 262 235 234 234 227 194 152 121 120 126 121 117 115 119 115 103 102 107 109 113 115 118 121 123 124 124
208 208 209 212 214 209 209 215 223 218 226 235 244 248 256 256 254 263 243 227 217 206 198 165 147 138 136 137 129 132 123 116 112 109 113 115 118 121 123 125 126 127 127
205 204 208 213 213 210 211 216 220 221 224 230 241 240 240 239 237 226 225 216 202 184 179 174 162 146 146 148 146 144 131 127 127 127 129 129 130 131 131 132 134 135 135
201 201 207 213 213 212 215 217 217 218 219 222 228 235 239 234 227 216 204 196 185 171 168 177 160 162 159 160 172 166 161 160 158 145 136 140 143 149 149 147 148 148 147
198 201 207 209 210 211 216 217 220 213 216 221 220 220 218 210 296 247 233 190 182 183 178 180 178 179 175 174 188 189 179 167 166 176 168 169 166 169 168 169 170 166 162
203 200 207 210 212 215 153 195 244 225 222 226 224 219 207 193 191 197 221 214 224 200 196 198 200 197 193 192 191 193 186 186 189 184 201 196 188 191 184 180 165 170 174
200 203 211 212 212 197 159 183 229 236 230 230 229 229 232 202 196 205 189 191 204 218 230 234 221 214 202 195 194 197 201 206 208 172 195 203 199 203 192 158 157 173 181
201 205 211 213 213 196 170 188 209 223 227 228 230 230 229 219 214 220 208 202 207 205 216 227 233 228 217 194 197 205 196 193 197 193 197 215 199 204 195 170 165 180 189
207 213 213 213 214 199 175 187 211 221 221 224 227 228 228 224 190 225 219 212 210 207 199 198 205 187 139 168 187 195 193 198 198 193 197 220 203 203 205 193 176 183 194
210 218 212 214 213 205 174 188 213 226 222 225 221 218 208 225 184 203 220 218 216 217 205 181 179 186 192 188 193 207 205 210 208 204 190 208 207 204 210 201 190 186 195
Height
1545 1547 1547 1548 1550 1551 1552 1553 1554 1555 1556 1557 1557 1558 1559 1559 1560 1561 1560 1559 1560 1560 1560 1561 1561 1562 1562 1563 1563 1564 1564 1565 1566 1567 1567 1568 1569 1570 1570 1571 1572 1572 1573
1546 1548 1549 1549 1551 1552 1553 1553 1554 1555 1555 1556 1557 1557 1558 1559 1558 1559 1559 1558 1558 1559 1559 1559 1560 1560 1560 1561 1561 1562 1563 1563 1564 1565 1566 1567 1567 1568 1569 1569 1570 1570 1571
1547 1548 1550 1550 1551 1552 1552 1553 1553 1554 1555 1555 1556 1556 1557 1557 1557 1557 1558 1558 1557 1557 1557 1558 1558 1558 1558 1559 1559 1560 1560 1561 1562 1563 1564 1564 1565 1566 1566 1567 1568 1568 1569
1548 1549 1550 1551 1551 1552 1553 1552 1553 1554 1554 1555 1555 1555 1555 1555 1555 1555 1556 1556 1556 1556 1555 1555 1556 1556 1556 1556 1557 1557 1558 1558 1559 1560 1561 1562 1563 1564 1564 1565 1565 1566 1567
1548 1549 1550 1550 1551 1552 1552 1552 1553 1553 1553 1554 1554 1554 1554 1554 1554 1554 1554 1554 1554 1554 1554 1553 1553 1553 1553 1553 1554 1554 1555 1555 1556 1557 1558 1559 1560 1561 1561 1562 1563 1563 1564
1548 1549 1550 1549 1550 1551 1551 1551 1551 1551 1552 1552 1553 1552 1552 1552 1552 1552 1552 1552 1551 1552 1552 1551 1551 1551 1551 1551 1551 1551 1552 1552 1553 1553 1554 1555 1557 1557 1558 1559 1560 1561 1561
1548 1548 1549 1549 1549 1550 1550 1550 1550 1550 1551 1550 1551 1551 1551 1550 1550 1550 1550 1550 1550 1549 1549 1549 1549 1549 1549 1548 1548 1549 1549 1549 1549 1550 1551 1552 1553 1554 1555 1556 1557 1557 1558
1548 1549 1548 1549 1549 1548 1548 1549 1549 1549 1550 1549 1550 1549 1549 1550 1548 1548 1548 1548 1548 1548 1547 1547 1547 1547 1547 1547 1547 1546 1547 1547 1547 1547 1548 1549 1550 1550 1551 1552 1553 1554 1555
1548 1548 1548 1548 1548 1548 1548 1547 1547 1548 1548 1548 1548 1548 1548 1547 1547 1547 1546 1546 1546 1546 1546 1546 1545 1545 1545 1545 1545 1544 1544 1544 1545 1545 1545 1546 1547 1548 1548 1549 1550 1551 1552
1547 1547 1547 1547 1547 1547 1547 1547 1547 1546 1546 1547 1546 1546 1546 1546 1546 1546 1546 1545 1545 1544 1544 1544 1544 1543 1543 1543 1542 1542 1542 1542 1543 1543 1543 1543 1544 1545 1545 1546 1547 1548 1548
1546 1546 1546 1546 1546 1546 1545 1545 1544 1544 1545 1545 1545 1544 1544 1543 1544 1544 1543 1544 1543 1543 1543 1542 1542 1542 1542 1541 1541 1540 1540 1540 1541 1541 1541 1541 1542 1542 1543 1544 1544 1545 1546
1546 1545 1545 1545 1545 1545 1544 1543 1543 1542 1542 1542 1542 1542 1542 1542 1542 1542 1541 1541 1541 1541 1541 1541 1541 1540 1540 1540 1539 1539 1539 1539 1539 1539 1539 1540 1540 1540 1541 1542 1543 1543 1544
1545 1544 1544 1543 1543 1543 1542 1542 1541 1541 1540 1540 1539 1540 1540 1540 1540 1540 1540 1539 1539 1540 1539 1540 1539 1539 1539 1539 1538 1538 1537 1538 1538 1538 1538 1538 1538 1539 1540 1540 1541 1542 1543
1543 1542 1542 1541 1541 1541 1540 1540 1540 1539 1538 1537 1537 1537 1537 1537 1537 1537 1538 1538 1537 1538 1538 1538 1538 1538 1538 1537 1537 1537 1537 1537 1537 1537 1537 1537 1537 1538 1539 1539 1540 1541 1542
1540 1540 1540 1540 1539 1539 1538 1538 1538 1537 1536 1536 1536 1535 1535 1535 1535 1535 1535 1535 1536 1536 1536 1536 1536 1536 1536 1536 1536 1536 1536 1536 1536 1536 1536 1536 1536 1537 1538 1538 1539 1540 1541
1537 1538 1538 1538 1538 1537 1537 1536 1536 1535 1535 1534 1534 1533 1533 1534 1533 1533 1533 1533 1533 1534 1534 1534 1534 1535 1535 1535 1535 1535 1535 1535 1535 1535 1535 1535 1536 1536 1537 1538 1539 1539 1540
1535 1535 1536 1536 1536 1536 1535 1534 1534 1533 1533 1533 1532 1532 1531 1531 1531 1532 1531 1531 1531 1532 1532 1533 1533 1533 1533 1534 1534 1534 1535 1535 1534 1534 1534 1535 1535 1536 1536 1537 1538 1539 1539
1532 1532 1533 1533 1534 1534 1533 1533 1532 1532 1531 1531 1530 1530 1530 1530 1529 1529 1529 1530 1530 1530 1531 1531 1531 1532 1532 1532 1533 1533 1534 1534 1534 1534 1534 1534 1535 1535 1536 1536 1537 1538 1538
1529 1530 1530 1531 1531 1531 1531 1531 1530 1530 1529 1529 1528 1528 1528 1527 1527 1527 1527 1528 1528 1528 1529 1529 1530 1530 1531 1531 1532 1532 1533 1533 1534 1533 1533 1534 1534 1535 1535 1536 1536 1537 1538
1526 1527 1527 1528 1528 1528 1528 1528 1528 1527 1527 1526 1526 1526 1526 1526 1525 1525 1525 1525 1526 1526 1527 1528 1528 1529 1529 1530 1531 1532 1532 1533 1533 1534 1533 1533 1533 1534 1534 1535 1535 1536 1537
1523 1524 1524 1525 1525 1525 1526 1526 1525 1525 1525 1525 1524 1524 1524 1523 1523 1523 1524 1524 1524 1524 1525 1526 1526 1527 1528 1528 1529 1531 1532 1532 1532 1532 1533 1533 1533 1533 1533 1533 1534 1534 1535
1520 1521 1521 1522 1522 1523 1522 1522 1523 1523 1522 1522 1522 1522 1522 1521 1521 1521 1521 1521 1522 1522 1523 1524 1524 1525 1525 1526 1527 1528 1530 1531 1531 1531 1532 1532 1533 1533 1533 1533 1532 1533 1534
1517 1518 1519 1519 1519 1519 1519 1519 1519 1520 1520 1520 1520 1520 1521 1520 1519 1519 1519 1519 1519 1520 1520 1521 1522 1522 1523 1523 1524 1526 1527 1528 1529 1529 1529 1531 1531 1531 1531 1531 1531 1531 1532
1515 1515 1516 1516 1516 1516 1516 1516 1517 1517 1517 1517 1517 1517 1517 1517 1517 1517 1517 1517 1517 1517 1517 1518 1518 1519 1520 1521 1522 1523 1524 1525 1526 1526 1527 1529 1529 1530 1530 1529 1528 1529 1529
1511 1512 1512 1512 1512 1512 1513 1513 1513 1514 1514 1514 1514 1514 1514 1514 1514 1514 1514 1514 1514 1514 1514 1514 1515 1515 1516 1518 1519 1520 1521 1523 1523 1524 1524 1526 1527 1527 1527 1527 1526 1527 1527
1507 1508 1508 1509 1509 1509 1509 1509 1509 1510 1511 1511 1511 1511 1510 1510 1510 1511 1511 1511 1511 1512 1512 1512 1512 1512 1513 1514 1515 1517 1518 1519 1520 1521 1521 1523 1524 1525 1525 1525 1524 1524 1524